This is the latest recevied weather packets stored in our database for station/object SALIDA. If no packets are shown the sender has not sent any weather packets the latest 1 day(s).
| Time | Temp. | Humidity | Pressure | Rain* | Wind** | Luminosity | Snow |
|---|---|---|---|---|---|---|---|
| 1777982486 | 7.22° C | 67% | 999.6 hPa | 0 mm | 2.24 m/s, 117° | - | - |
| 1777981586 | 7.22° C | 66% | 999.2 hPa | 0 mm | 1.79 m/s, 103° | - | - |
| 1777980686 | 7.78° C | 66% | 999.3 hPa | 0 mm | 2.68 m/s, 112° | - | - |
| 1777979786 | 7.78° C | 65% | 999.5 hPa | 0 mm | 3.13 m/s, 157° | - | - |
| 1777978886 | 7.78° C | 64% | 999.5 hPa | 0 mm | 3.13 m/s, 158° | - | - |
| 1777977986 | 8.33° C | 64% | 999.3 hPa | 0 mm | 3.13 m/s, 135° | - | - |
| 1777977086 | 8.33° C | 63% | 999.7 hPa | 0 mm | 2.68 m/s, 157° | - | - |
| 1777976186 | 8.33° C | 63% | 1000.1 hPa | 0 mm | 2.68 m/s, 146° | - | - |
| 1777975286 | 8.33° C | 64% | 1000 hPa | 0 mm | 1.79 m/s, 158° | - | - |
| 1777974386 | 7.78° C | 65% | 1000.1 hPa | 0 mm | 0.89 m/s, 151° | - | - |
| 1777973486 | 7.22° C | 66% | 1000.2 hPa | 0 mm | 0.89 m/s, 112° | - | - |
| 1777972586 | 6.67° C | 68% | 1000.2 hPa | 0 mm | 0 m/s | - | - |
| 1777971686 | 6.67° C | 68% | 1000.3 hPa | 0 mm | 0 m/s | - | - |
| 1777970786 | 6.67° C | 67% | 1000.3 hPa | 0 mm | 0.45 m/s, 310° | - | - |
| 1777969920 | 6.67° C | 67% | 1000.6 hPa | 0 mm | 0 m/s | - | - |
| 1777969886 | 6.67° C | 67% | 1000.6 hPa | 0 mm | 0 m/s | - | - |
| 1777968986 | 7.22° C | 66% | 1000.7 hPa | 0 mm | 0 m/s | - | - |
| 1777968086 | 7.22° C | 65% | 1000.9 hPa | 0 mm | 0.45 m/s, 310° | - | - |
| 1777967186 | 7.22° C | 65% | 1001 hPa | 0 mm | 0 m/s | - | - |
| 1777966286 | 7.22° C | 65% | 1000.9 hPa | 0 mm | 0.45 m/s, 310° | - | - |
| 1777965386 | 7.22° C | 64% | 1000.8 hPa | 0 mm | 0 m/s | - | - |
| 1777964486 | 7.22° C | 63% | 1001.2 hPa | 0 mm | 0 m/s | - | - |
| 1777963586 | 7.78° C | 62% | 1001 hPa | 0 mm | 0 m/s | - | - |
| 1777962686 | 7.78° C | 61% | 1001 hPa | 0 mm | 0.45 m/s, 310° | - | - |
* Rain latest hour (hover to see other rain measurements)
** Current wind speed in m/s (hover to see current wind gust speed)